Gulfport, MS

9:58 PM CDT on August 22, 2017 (GMT -0500)
Gulfport-Biloxi Regional

Weather History for KGPT - May, 2013

Change the Weather History Date:

Saturday, May 4, 2013

  Actual Average Record
Temperature  
Mean Temperature 56 °F -  
Max Temperature 72 °F 80 °F 90 °F (1951)
Min Temperature 43 °F 61 °F 43 °F (2013)
Degree Days  
Heating Degree Days 8    
Growing Degree Days 6 (Base 50)    
Moisture  
Dew Point 41 °F    
Average Humidity 58    
Maximum Humidity 89    
Minimum Humidity 29    
Precipitation  
Precipitation 0.00 in - - ()
Sea Level Pressure  
Sea Level Pressure 29.95 in    
Wind  
Wind Speed 9 mph (NW)    
Max Wind Speed 16 mph    
Max Gust Speed 25 mph    
Visibility 10 miles    
Events      
Averages and records for this station are not official NWS values.
T = Trace of Precipitation, MM = Missing Value Source: NWS Daily Summary

Daily Weather History Graph

Daily Weather History Graph

Search for Another Location

Airport or City:

Trip Planner

Search our weather history database for the weather conditions in past years. The results will help you decide how hot, cold, wet, or windy it might be!

Date:

Astronomy

May. 04, 2013 Rise Set
Actual Time 6:09 AM CDT 7:36 PM CDT
Civil Twilight 5:44 AM CDT 8:02 PM CDT
Nautical Twilight 5:13 AM CDT 8:32 PM CDT
Astronomical Twilight 4:41 AM CDT 9:04 PM CDT
Moon 2:46 AM CDT (5/4) 2:54 PM CDT (5/4)
Length of Visible Light 14h 17m
Length of Day
13h 26m
Waning Crescent, 27% of the Moon is Illuminated
May 4
Waning Crescent
May 9
New
May 17
First Quarter
May 24
Full
May 31
Last Quarter

Hourly Weather History & Observations

Time (CDT) Temp. Windchill Dew Point Humidity Pressure Visibility Wind Dir Wind Speed Gust Speed Precip Events Conditions
12:53 AM 48.0 °F - 42.1 °F 80% 29.98 in 10.0 mi NNW 12.7 mph 21.9 mph N/A   Scattered Clouds
1:53 AM 48.0 °F - 41.0 °F 77% 29.97 in 10.0 mi NNW 11.5 mph - N/A   Clear
2:53 AM 46.0 °F 41.9 °F 41.0 °F 83% 29.96 in 10.0 mi NNW 8.1 mph - N/A   Clear
3:53 AM 45.0 °F 40.6 °F 41.0 °F 86% 29.96 in 10.0 mi NW 8.1 mph - N/A   Clear
4:53 AM 44.1 °F 40.8 °F 39.9 °F 85% 29.96 in 10.0 mi NW 5.8 mph - N/A   Clear
5:53 AM 43.0 °F 39.5 °F 39.9 °F 89% 29.97 in 10.0 mi NW 5.8 mph - N/A   Clear
6:53 AM 44.1 °F 41.5 °F 41.0 °F 89% 30.00 in 10.0 mi WNW 4.6 mph - N/A   Clear
7:53 AM 48.9 °F - 41.0 °F 74% 30.00 in 10.0 mi NNW 5.8 mph - N/A   Clear
8:53 AM 54.0 °F - 41.0 °F 62% 30.01 in 10.0 mi NNW 9.2 mph - N/A   Clear
9:53 AM 57.9 °F - 39.9 °F 51% 30.01 in 10.0 mi North 10.4 mph - N/A   Clear
10:53 AM 63.0 °F - 37.0 °F 38% 29.99 in 10.0 mi NNW 12.7 mph 18.4 mph N/A   Clear
11:53 AM 66.0 °F - 35.1 °F 32% 29.98 in 10.0 mi NNW 15.0 mph 23.0 mph N/A   Clear
12:53 PM 69.1 °F - 35.1 °F 29% 29.96 in 10.0 mi NNW 16.1 mph 23.0 mph N/A   Clear
1:53 PM 69.1 °F - 36.0 °F 30% 29.95 in 10.0 mi NNW 11.5 mph 25.3 mph N/A   Clear
2:53 PM 70.0 °F - 37.9 °F 31% 29.92 in 10.0 mi NW 12.7 mph 24.2 mph N/A   Clear
3:53 PM 69.1 °F - 37.9 °F 32% 29.90 in 10.0 mi WNW 8.1 mph 19.6 mph N/A   Clear
4:53 PM 70.0 °F - 37.9 °F 31% 29.89 in 10.0 mi WNW 5.8 mph - N/A   Clear
5:53 PM 70.0 °F - 37.9 °F 31% 29.88 in 10.0 mi NW 6.9 mph - N/A   Clear
6:53 PM 68.0 °F - 42.1 °F 39% 29.89 in 10.0 mi WNW 4.6 mph - N/A   Clear
7:53 PM 62.1 °F - 45.0 °F 53% 29.90 in 10.0 mi West 4.6 mph - N/A   Clear
8:53 PM 57.9 °F - 48.9 °F 72% 29.92 in 10.0 mi Calm Calm - N/A   Clear
9:53 PM 55.9 °F - 48.9 °F 77% 29.93 in 10.0 mi Calm Calm - N/A   Clear
10:53 PM 64.0 °F - 46.9 °F 54% 29.92 in 10.0 mi Variable 4.6 mph - N/A   Clear
11:53 PM 63.0 °F - 48.9 °F 60% 29.91 in 10.0 mi West 5.8 mph - N/A   Clear